TimeCDT,TemperatureF,Dew PointF,Humidity,Sea Level PressureIn,VisibilityMPH,Wind Direction,Wind SpeedMPH,Gust SpeedMPH,PrecipitationIn,Events,Conditions,WindDirDegrees,DateUTC
12:54 AM,64.9,54.0,68,29.90,10.0,South,9.2,-,N/A,,Clear,170,2012-03-18 05:54:00
1:54 AM,62.1,54.0,75,29.90,10.0,South,6.9,-,N/A,,Clear,170,2012-03-18 06:54:00
2:54 AM,61.0,55.0,81,29.91,10.0,Calm,Calm,-,N/A,,Clear,0,2012-03-18 07:54:00
3:54 AM,59.0,54.0,83,29.91,10.0,SSE,4.6,-,N/A,,Clear,150,2012-03-18 08:54:00
4:54 AM,57.9,54.0,87,29.91,10.0,SE,5.8,-,N/A,,Clear,140,2012-03-18 09:54:00
5:54 AM,57.9,54.0,87,29.91,10.0,SE,4.6,-,N/A,,Clear,140,2012-03-18 10:54:00
6:54 AM,57.0,52.0,83,29.92,10.0,SE,5.8,-,N/A,,Clear,130,2012-03-18 11:54:00
7:54 AM,57.0,51.1,81,29.94,10.0,SSE,6.9,-,N/A,,Clear,160,2012-03-18 12:54:00
8:54 AM,60.1,51.1,72,29.94,10.0,South,6.9,-,N/A,,Clear,180,2012-03-18 13:54:00
9:54 AM,64.0,53.1,67,29.94,10.0,South,8.1,-,N/A,,Clear,190,2012-03-18 14:54:00
10:54 AM,69.1,55.0,61,29.92,10.0,South,10.4,-,N/A,,Clear,180,2012-03-18 15:54:00
11:54 AM,73.0,55.9,55,29.91,10.0,South,13.8,-,N/A,,Clear,180,2012-03-18 16:54:00
12:54 PM,75.0,54.0,48,29.90,10.0,SSW,17.3,26.5,N/A,,Partly Cloudy,200,2012-03-18 17:54:00
1:54 PM,77.0,52.0,42,29.88,10.0,South,20.7,27.6,N/A,,Partly Cloudy,180,2012-03-18 18:54:00
2:54 PM,78.1,51.1,39,29.86,10.0,South,19.6,25.3,N/A,,Clear,190,2012-03-18 19:54:00
3:54 PM,78.1,52.0,40,29.85,10.0,SSW,12.7,19.6,N/A,,Scattered Clouds,200,2012-03-18 20:54:00
4:54 PM,78.1,52.0,40,29.84,10.0,South,19.6,27.6,N/A,,Mostly Cloudy,180,2012-03-18 21:54:00
5:54 PM,75.0,52.0,44,29.83,10.0,South,17.3,23.0,N/A,,Clear,190,2012-03-18 22:54:00
6:54 PM,73.0,53.1,49,29.84,10.0,SSE,11.5,-,N/A,,Mostly Cloudy,160,2012-03-18 23:54:00
7:54 PM,69.1,52.0,54,29.85,10.0,SSE,6.9,-,N/A,,Clear,160,2012-03-19 00:54:00
8:54 PM,66.9,53.1,61,29.86,10.0,SSE,6.9,-,N/A,,Partly Cloudy,150,2012-03-19 01:54:00
9:54 PM,66.9,54.0,63,29.86,10.0,SSE,6.9,-,N/A,,Overcast,150,2012-03-19 02:54:00
10:54 PM,66.0,54.0,65,29.86,10.0,SE,6.9,-,N/A,,Scattered Clouds,140,2012-03-19 03:54:00